Regional Weather Roundup
Issued by NWS Newport/Morehead, NC

Current Version | Previous Version | Text Only | Print | Product List | Glossary On
Versions: 1 2 3 4 5 6 7 8 9 10 11 12 13 14 15 16 17 18 19 20 21 22 23 24 25 26 27 28 29 30 31 32 33 34 35 36 37 38 39 40 41 42 43 44 45 46 47 48 49 50
000 ASUS42 KMHX 310122 RWRMHX WEATHER ROUNDUP FOR EASTERN NORTH CAROLINA NATIONAL WEATHER SERVICE NEWPORT/MOREHEAD CITY NC 900 PM EDT THU OCT 30 2014 NOTE: "FAIR" INDICATES FEW OR NO CLOUDS BELOW 12,000 FEET WITH NO SIGNIFICANT WEATHER AND/OR OBSTRUCTIONS TO VISIBILITY NCZ015>017-031-032-045>047-102-103-310200- NORTH COAST CITY SKY/WX TMP DP RH WIND PRES REMARKS EDENTON CLEAR 53 47 82 NE5 30.00S ELIZABETH CITY CLEAR 56 46 69 N7 30.00S KITTY HAWK CLEAR 59 47 64 NE5 29.98S MANTEO CLEAR 58 47 66 NE9 29.99S $$ NCZ045>047-081-094-103-104-310200- CENTRAL COAST CITY SKY/WX TMP DP RH WIND PRES REMARKS FRISCO CLEAR 60 49 66 NE10G18 29.97S SWANQUARTER N/A 55 N/A N/A NE1 29.94S $$ NCZ095-097-098-100-101-310200- SOUTHERN COAST CITY SKY/WX TMP DP RH WIND PRES REMARKS BEAUFORT PTCLDY 57 52 83 NE6 29.97S CEDAR ISLAND N/A 63 N/A N/A NE15G22 30.00S JACKSONVILLE CLEAR 57 51 80 NE6 29.97R PINEY ISLAND CLEAR 63 52 67 NE13 29.97R WILMINGTON CLEAR 56 53 90 NE6 29.96S $$ NCZ011>013-027>030-043-044-078>080-089-090>093-098-310200- COASTAL PLAIN CITY SKY/WX TMP DP RH WIND PRES REMARKS AHOSKIE NOT AVBL CLINTON CLEAR 54 49 83 CALM 29.98S ELIZABETHTOWN CLEAR 54 48 80 CALM 29.97S GOLDSBORO CLEAR 55 51 86 CALM 29.97S GREENVILLE CLEAR 50 50 100 CALM 30.00F HAVELOCK CLEAR 59 52 77 NE7 29.98R KENANSVILLE CLEAR 49 47 93 CALM 29.99S KINSTON CLEAR 50 46 87 CALM 29.99S NEW BERN CLEAR 56 51 84 NE6 29.99S RICHLANDS CLEAR 52 46 82 MISG 29.98S ROCKY MOUNT CLEAR 48 46 93 CALM 30.00R WASHINGTON CLEAR 52 48 85 CALM 30.00R WHITEVILLE CLEAR 55 50 85 CALM 29.96R $$ AMZ130-135-150-152-154-156-158-170-250-252-270-ANZ085-086-088-633-658-670-310200- MARINE OBSERVATIONS STATION/POSITION TIME TEMP WIND PRES WAVE SWELL AIR SEA DIR/SP/G HT/PER HT/PER (UTC) (F) (DEG/KT/KT) (MB) (FT/S) (FT/S) CHESAPEAKE LIGHT 0100 60 10/ 16/ 17 1016.4 64 E VA BEACH 0100 61 67 30/ 12/ 16 1015.2 2/ 5 2/ 7 DUCK 0100 61 67 20/ 14/ 17 1014.7 2 E DUCK NOT AVBL 10 NE DUCK 0100 67 N/A 3/ 6 OREGON INLET 0100 61 68 10/ 11/ 16 1015.1 13E OREGON INLT 0100 69 N/A 4/ 5 HATTERAS CG 0100 63 69 30/ 13/ 19 1015.1 DIAMOND BUOY 0100 65 10/ 19/ 25 1013.7 4/ 6 2/ 8 17 S OCRACOKE NOT AVBL CAPE LOOKOUT 0100 63 30/ 14/ 18 1014.4 BEAUFORT LAB 0100 60 70 30/ 3/ 5 1014.2 30 SE NEW RIVER 0100 66 74 40/ 16/ 17 1013.7 3/ 5 5 SE WRIGHTSVLE 0100 62 71 60/ 16/ 19 N/A 225 S CAPE HAT 0021 74 77 170/ 4/ 6 1012.4 3/ 5 3/ 5 41 SE CHARLESTON 0100 70 77 20/ 16/ 19 1012.2 4/ 6 2/13 $$

USA.gov is the U.S. government's official web portal to all federal, state and local government web resources and services.